Погода в Хмелевке

Россия / Астраханская область     46°05′21″N   47°54′23″E
темп.,
°C
ветер,
м/с
пор.,
м/с
влажн.,
%
обл.,
%
осадки,
мм/ч
давл.,
гПа
погр.,
м
20 апреля, вт
вт2001:00+14ююз3576100 0.0 1017258
04:00+12ююв2289100 0.0 101539
07:00+13вюв3582100 0.0 1015182
10:00+18вюв6759100 0.0 1015638
13:00+19вюв101253100 0.0 1013846
16:00+19вюв9125070 0.0 1012772
19:00+17в91661100 0.0 1012558
22:00+16вюв112061100 0.0 1012628
21 апреля, ср
ср2101:00+15вюв91765100 0.0 1012481
04:00+15вюв81563100 0.0 1013425
07:00+14вюв111768100 0.5 1014472
10:00+17вюв7105514 0.9 10161000
13:00+19в7750100 0.0 10151160
16:00+19в5549100 0.0 10151381
19:00+17св5556100 0.0 10161023
22:00+16ссз4862100 0.0 1017388
22 апреля, чт
чт2201:00+14сз48735 0.7 1018250
04:00+13ссз511688 0.7 1019328
07:00+13с3105789 0.0 1019364
10:00+17ссз6741100 0.0 1020831
13:00+14ссз8115997 0.1 1021658
16:00+15с6858100 0.1 1021565
19:00+15ссв4756100 0.0 1021590
22:00+12ссз4961100 0.0 1021205
23 апреля, пт
пт2301:00+12ссз4969100 0.0 1019255
04:00+12ссз51050100 0.0 1018347
07:00+10ссз4865100 1.4 1019347
10:00+12сз5852100 1.8 1019552
13:00+17сз7833100 0.0 10181349
16:00+17сз8935100 0.0 10181419
19:00+15ссз6841100 0.0 10191184
22:00+12сз35530 0.0 101982
24 апреля, сб
сб2401:00+10ссз34600 0.0 101954
04:00+9зсз22642 0.0 101916
07:00+10ссз2364100 0.0 1020103
10:00+15з224890 0.0 1020679
13:00+19з4437100 0.0 10201665
16:00+21ююз56315 0.0 10192299
19:00+16ю694885 0.0 1019497
22:00+15ю61060100 0.0 1020378